Location: Houston
(29.7630°N, 95.3630°W)
Time: 01:51:21
(UTC-06:00)

Daily predictions for brighter satellites

Satellite Brightness Start Highest point End
(mag) Time Altitude Azimuth Time Altitude Azimuth Time Altitude Azimuth
Centaur D-1AR AC-39 3.9 04:15:47 26° SE 04:15:47 26° SE 04:17:32 10° SE
H-2A ROCKET BODY 3.4 04:16:36 57° S 04:16:36 57° S 04:38:22 10° ESE
CZ-3C R/B 4.4 04:34:31 31° SW 04:42:29 62° SSE 07:09:04 10° E
Cosmos 2297 4.3 04:48:56 45° S 04:48:56 45° S 04:52:53 10° S
Cosmos 921 Rocket 4.0 04:47:21 45° ENE 04:47:21 45° ENE 04:51:36 10° SSE
Timation 1 Rocket 4.4 04:49:50 66° SSW 04:49:50 66° SSW 04:55:06 10° SSE
Feng Yun 1-1 Rocket 4.1 04:43:52 10° NNE 04:49:25 81° ESE 04:54:49 10° S
Gbstr 26 Del rocket 4.2 04:54:47 36° SSE 04:54:47 36° SSE 04:57:14 10° SE
Cosmos 2181 Rocket 4.3 04:54:37 50° SW 04:54:37 50° SW 04:59:23 10° S
Thor Agena Rocket 3.6 04:48:44 10° SSE 04:53:44 73° ENE 04:54:10 69° NE
Sakura Rocket 4.4 04:54:33 52° SW 04:56:25 73° SSE 05:05:35 10° E
Okean 1 Rocket 4.5 04:54:29 10° SSE 04:58:33 37° E 05:02:36 10° NNE
CZ-3 R/B 2.9 04:39:21 10° WSW 05:00:24 54° S 05:05:52 10° E
USA 116 4.3 04:56:41 10° SSE 05:00:01 59° SSE 05:00:01 59° SSE
CZ-3 Stage 3 4.1 05:05:13 32° S 05:05:13 32° S 05:08:24 10° SE
Cosmos 1238 Rocket 3.6 05:04:08 44° N 05:06:01 84° W 05:12:19 10° S
Orbus 7S 4.3 05:11:23 52° WSW 05:12:34 71° S 05:25:21 10° E
Cosmos 44 Rocket 3.8 05:13:50 45° NNW 05:13:50 45° NNW 05:17:46 10° NNE
Cosmos 1602 4.1 05:11:29 10° S 05:15:23 65° E 05:19:19 10° NNE
Cosmos 1812 4.2 05:18:11 26° SSW 05:18:11 26° SSW 05:19:57 10° S
Ariane Rocket 4.3 05:11:50 10° NNE 05:16:34 40° E 05:21:17 10° S
USA 215 3.2 05:10:19 10° NE 05:16:45 64° NW 05:20:10 29° WSW
ASTRO E2 2.8 05:21:27 61° SSW 05:21:54 68° SSE 05:25:55 10° E
Cosmos 1371 Rocket 4.0 05:19:01 27° NNW 05:21:58 86° ENE 05:27:12 10° SSE
Lacrosse 5 3.1 05:24:04 27° NNW 05:24:04 27° NNW 05:27:06 10° NNE
Cosmos 1300 Rocket 3.4 05:18:16 10° S 05:22:42 79° W 05:27:07 10° N
Cosmos 192 4.3 05:18:32 10° SSW 05:23:20 57° WNW 05:28:10 10° N
USA 32 4.0 05:24:25 28° NNW 05:27:03 59° W 05:32:11 10° S
DELTA 2 R/B (1) 4.2 05:27:19 34° WSW 05:28:31 38° SW 05:33:37 10° SSE
Meteor 1-11 Rocket 3.8 05:25:19 10° S 05:31:12 88° E 05:36:59 10° N
Okean 1 3.4 05:32:44 52° W 05:32:58 53° W 05:36:52 10° S
Nadezhda 3 Rocket 4.2 05:34:17 10° N 05:40:40 74° E 05:47:00 10° S
Cosmos 1346 Rocket 3.0 05:41:28 39° NW 05:42:22 47° W 05:46:10 10° SSW
CSL-04 Rocket 4.0 05:41:42 10° NNE 05:47:12 69° ESE 05:52:37 10° S
Meteor 1-13 Rocket 4.3 05:42:21 10° N 05:48:19 83° W 05:54:13 10° S
Cosmos 2084 3.5 05:44:29 10° SSW 05:48:26 70° ESE 05:52:15 10° NE
Cosmos 962 Rocket 4.4 05:42:55 10° S 05:49:04 86° W 05:55:20 10° N
Meteor 2-13 Rocket 4.4 05:44:45 10° SSW 05:50:50 63° W 05:56:56 10° N
SKYMED 2 3.5 05:50:03 10° S 05:54:22 78° WSW 05:58:43 10° NNW
H-2A DEB 4.3 05:53:25 27° WSW 05:54:38 48° SSW 05:57:25 10° ESE
Cosmos 2341 Rocket 4.0 05:54:10 10° SSW 06:00:26 69° W 06:06:40 10° N
Meteor 2-4 Rocket 4.0 05:55:46 10° N 06:01:21 72° E 06:07:04 10° SSE
CZ-3 Stage 3 4.1 05:59:05 10° S 06:02:25 25° SE 06:11:27 10° E
Cosmos 2369 Rocket 2.5 05:58:14 10° NNW 06:03:56 70° ENE 06:09:35 10° SSE
Meteor 1-5 Rocket 4.2 05:58:56 10° S 06:04:19 79° E 06:09:38 10° N
USA 129 4.4 06:03:54 10° SE 06:05:30 19° ENE 06:07:08 10° NNE
H-2A DEB 3.8 06:04:50 20° W 06:06:27 54° S 06:09:59 10° ESE
Cosmos 44 4.2 06:02:29 10° WSW 06:07:13 31° WNW 06:11:51 10° N
GPS 2-05 Rocket1 2.8 06:06:39 21° WNW 06:08:52 81° SSW 06:12:27 10° ESE
Cosmos 1536 3.4 06:10:02 10° SSW 06:13:40 34° W 06:17:20 10° NNW
Skynet4D Del rocket 3.8 06:11:16 10° WSW 06:16:35 63° S 06:21:56 10° E
SMAP 4.3 06:12:17 10° NNE 06:16:45 45° E 06:21:11 10° S
IUS-13 SRM-1 3.1 06:17:41 10° SW 06:19:24 22° SSE 06:21:02 10° ESE
Cosmos 1633 4.2 06:20:07 10° WSW 06:22:13 15° WNW 06:24:19 10° NW
CZ-4 R/B 1.5 06:18:25 10° NNE 06:22:20 75° ESE 06:26:11 10° S
Cosmos 1025 Rocket 3.0 06:18:52 10° NNW 06:23:12 65° W 06:27:28 10° S
Cosmos 1943 4.1 06:18:41 10° WSW 06:23:18 26° WNW 06:27:58 10° N
Cosmos 1269 Rocket 4.0 06:20:47 10° SSW 06:26:00 64° WNW 06:31:16 10° N
PAYLOAD A 4.2 06:20:47 10° N 06:26:13 84° WNW 06:31:38 10° SSW
USA 229 DEB 4.0 06:20:37 10° SW 06:27:06 44° NW 06:33:40 10° NNE
USA 229 4.0 06:20:43 10° SW 06:27:12 44° NW 06:33:46 10° NNE
YAOGAN 1 3.3 06:25:42 10° NNE 06:29:58 60° E 06:34:14 10° S
Meteor 2-19 Rocket 4.4 06:27:08 10° SSW 06:33:14 73° W 06:39:20 10° N
SJ-12 3.9 06:33:19 10° N 06:37:28 79° WNW 06:41:36 10° SSW
Cosmos 1544 Rocket 3.7 06:34:21 10° SSW 06:38:35 53° W 06:42:52 10° N
IRS-1A Rocket 4.5 06:35:42 10° N 06:41:18 55° WNW 06:46:59 10° SSW
NOSS 3-1 (A) 3.9 06:36:20 10° SSW 06:41:57 66° ESE 06:48:03 10° NE
Cosmos 1943 Rocket 2.6 06:36:31 10° NNW 06:41:59 66° ENE 06:47:27 10° SSE
Meteor 2-8 Rocket 4.5 06:37:18 10° N 06:43:26 71° W 06:49:32 10° S
